FWI455 MMMY-MUHA

Flight info

Callsign FWI455
Flight time 2h 11m
Altitude 19000
Route XOTAT1 XOTAT UT11 MATOL ALURU UR522 NAKRO VETSI1
Aircraft B788/H-V/N

Departure

Time 2026-04-14 20:23
Airport Monterrey International Airport (MMMY)

Arrival

Time 2026-04-14 22:34
Airport José Martí International Airport (MUHA)
Time Latitude Longitude Altitude Speed Heading
2026-04-14 20:02 25.77585 -100.11113 1296 ft 0 kts 272°
2026-04-14 20:02 25.77585 -100.11105 1296 ft 2 kts 272°
2026-04-14 20:03 25.77585 -100.11102 1296 ft 0 kts 272°
2026-04-14 20:12 25.77584 -100.11091 1296 ft 2 kts 272°
2026-04-14 20:13 25.77584 -100.11071 1296 ft 3 kts 264°
2026-04-14 20:13 25.77589 -100.11049 1296 ft 3 kts 242°
2026-04-14 20:13 25.77602 -100.11032 1296 ft 3 kts 218°
2026-04-14 20:13 25.77620 -100.11021 1296 ft 3 kts 196°
2026-04-14 20:14 25.77635 -100.11018 1296 ft 0 kts 182°
2026-04-14 20:16 25.77631 -100.11019 1296 ft 6 kts 188°
2026-04-14 20:16 25.77608 -100.11056 1296 ft 4 kts 283°
2026-04-14 20:16 25.77619 -100.11069 1296 ft 2 kts 327°
2026-04-14 20:17 25.77662 -100.11087 1296 ft 13 kts 354°
2026-04-14 20:17 25.77756 -100.11146 1296 ft 17 kts 311°
2026-04-14 20:17 25.77834 -100.11199 1296 ft 11 kts 22°
2026-04-14 20:17 25.77894 -100.11149 1296 ft 8 kts 59°
2026-04-14 20:18 25.77879 -100.11089 1296 ft 10 kts 121°
2026-04-14 20:18 25.77834 -100.11006 1296 ft 16 kts 121°
2026-04-14 20:18 25.77763 -100.10874 1296 ft 24 kts 121°
2026-04-14 20:18 25.77664 -100.10693 1296 ft 31 kts 121°
2026-04-14 20:19 25.77540 -100.10465 1296 ft 38 kts 121°
2026-04-14 20:19 25.77392 -100.10197 1296 ft 44 kts 122°
2026-04-14 20:19 25.77219 -100.09884 1296 ft 51 kts 121°
2026-04-14 20:19 25.77040 -100.09551 1296 ft 45 kts 121°
2026-04-14 20:20 25.76953 -100.09361 1296 ft 8 kts 74°
2026-04-14 20:20 25.76988 -100.09323 1296 ft 7 kts 31°
2026-04-14 20:20 25.77019 -100.09302 1296 ft 7 kts 31°
2026-04-14 20:20 25.77052 -100.09281 1296 ft 10 kts 31°
2026-04-14 20:21 25.77127 -100.09293 1296 ft 8 kts 298°
2026-04-14 20:22 25.77138 -100.09314 1296 ft 9 kts 298°
2026-04-14 20:22 25.77283 -100.09589 1296 ft 91 kts 301°
2026-04-14 20:22 25.77801 -100.10540 1297 ft 195 kts 301°
2026-04-14 20:22 25.78623 -100.12044 1664 ft 268 kts 301°
2026-04-14 20:23 25.79028 -100.12778 2158 ft 290 kts 301°
2026-04-14 20:23 25.80397 -100.14728 3379 ft 360 kts 312°
2026-04-14 20:23 25.82598 -100.16358 4602 ft 393 kts 332°
2026-04-14 20:23 25.85117 -100.17129 5825 ft 355 kts 351°
2026-04-14 20:24 25.87506 -100.16890 7035 ft 355 kts
2026-04-14 20:24 25.89805 -100.15692 8313 ft 378 kts 28°
2026-04-14 20:24 25.91746 -100.13627 9580 ft 392 kts 48°
2026-04-14 20:24 25.92680 -100.11906 10407 ft 394 kts 60°
2026-04-14 20:25 25.93452 -100.08939 11580 ft 410 kts 79°
2026-04-14 20:25 25.93404 -100.05729 12593 ft 417 kts 97°
2026-04-14 20:25 25.92067 -100.01775 13932 ft 415 kts 120°
2026-04-14 20:25 25.90439 -99.99105 14959 ft 420 kts 128°
2026-04-14 20:26 25.89228 -99.97426 15626 ft 419 kts 131°
2026-04-14 20:26 25.87248 -99.95044 16630 ft 420 kts 136°
2026-04-14 20:26 25.85153 -99.92740 17593 ft 427 kts 138°
2026-04-14 20:26 25.82953 -99.90416 18396 ft 442 kts 139°
2026-04-14 20:27 25.80711 -99.88088 19260 ft 437 kts 139°
2026-04-14 20:27 25.78484 -99.85790 20129 ft 438 kts 140°
2026-04-14 20:27 25.76227 -99.83471 21009 ft 446 kts 140°
2026-04-14 20:27 25.73934 -99.81122 21890 ft 451 kts 140°
2026-04-14 20:28 25.71648 -99.78783 22756 ft 455 kts 140°
2026-04-14 20:28 25.69386 -99.76264 23626 ft 463 kts 132°
2026-04-14 20:28 25.67839 -99.73823 24291 ft 473 kts 123°
2026-04-14 20:28 25.67664 -99.73499 24372 ft 474 kts 123°
2026-04-14 20:29 25.66738 -99.71609 24828 ft 478 kts 118°
2026-04-14 20:31 25.64963 -99.67115 25836 ft 485 kts 112°
2026-04-14 20:31 25.64458 -99.65630 26157 ft 487 kts 111°
2026-04-14 20:31 25.63447 -99.62023 26904 ft 493 kts 103°
2026-04-14 20:31 25.63065 -99.58222 27664 ft 500 kts 93°
2026-04-14 20:32 25.63041 -99.56448 28015 ft 503 kts 90°
2026-04-14 20:32 25.63154 -99.52912 28708 ft 507 kts 86°
2026-04-14 20:32 25.63403 -99.49030 29458 ft 511 kts 85°
2026-04-14 20:32 25.63628 -99.45973 30043 ft 514 kts 85°
2026-04-14 20:33 25.63756 -99.44200 30380 ft 516 kts 85°
2026-04-14 20:33 25.64012 -99.40267 31122 ft 520 kts 86°
2026-04-14 20:33 25.64218 -99.36172 31888 ft 525 kts 87°
2026-04-14 20:34 25.64408 -99.28087 33383 ft 529 kts 89°
2026-04-14 20:34 25.64398 -99.24001 34134 ft 530 kts 90°
2026-04-14 20:34 25.64324 -99.19901 34875 ft 530 kts 91°
2026-04-14 20:34 25.64196 -99.15814 34997 ft 541 kts 92°
2026-04-14 20:35 25.63780 -99.07516 34992 ft 529 kts 94°
2026-04-14 20:35 25.63220 -98.99436 34993 ft 523 kts 95°
2026-04-14 20:36 25.62555 -98.91450 34995 ft 522 kts 96°
2026-04-14 20:36 25.61802 -98.83441 34996 ft 522 kts 96°
2026-04-14 20:37 25.60982 -98.75427 34996 ft 521 kts 97°
2026-04-14 20:37 25.60172 -98.67951 34996 ft 521 kts 97°
2026-04-14 20:38 25.59268 -98.59963 34996 ft 521 kts 97°
2026-04-14 20:38 25.58341 -98.52026 34996 ft 521 kts 98°
2026-04-14 20:39 25.57389 -98.44068 34996 ft 521 kts 98°
2026-04-14 20:39 25.56420 -98.36118 34996 ft 521 kts 98°
2026-04-14 20:40 25.55604 -98.29508 34996 ft 521 kts 98°
2026-04-14 20:40 25.54445 -98.20244 34996 ft 521 kts 98°
2026-04-14 20:41 25.53602 -98.13565 34996 ft 521 kts 98°
2026-04-14 20:41 25.52597 -98.05664 34996 ft 521 kts 98°
2026-04-14 20:42 25.51574 -97.97681 34996 ft 521 kts 98°
2026-04-14 20:43 25.50035 -97.85766 34996 ft 521 kts 98°
2026-04-14 20:43 25.49003 -97.77832 34996 ft 521 kts 98°
2026-04-14 20:44 25.47969 -97.69922 34996 ft 521 kts 98°
2026-04-14 20:44 25.46921 -97.61948 34996 ft 521 kts 98°
2026-04-14 20:45 25.45876 -97.54030 34996 ft 521 kts 98°
2026-04-14 20:45 25.44821 -97.46074 34996 ft 521 kts 98°
2026-04-14 20:46 25.43765 -97.38144 34996 ft 521 kts 99°
2026-04-14 20:46 25.42700 -97.30185 34996 ft 521 kts 99°
2026-04-14 20:47 25.41634 -97.22254 34996 ft 521 kts 99°
2026-04-14 20:47 25.40567 -97.14346 34996 ft 521 kts 99°
2026-04-14 20:48 25.39829 -97.08892 34996 ft 521 kts 99°
2026-04-14 20:48 25.39128 -97.03735 34996 ft 521 kts 99°
2026-04-14 20:49 25.38046 -96.95794 34996 ft 521 kts 99°
2026-04-14 20:49 25.36959 -96.87850 34996 ft 521 kts 99°
2026-04-14 20:50 25.35877 -96.79970 34996 ft 521 kts 99°
2026-04-14 20:50 25.34781 -96.72030 34996 ft 521 kts 99°
2026-04-14 20:51 25.33684 -96.64112 34996 ft 521 kts 99°
2026-04-14 20:51 25.32577 -96.56151 34996 ft 521 kts 99°
2026-04-14 20:52 25.31473 -96.48244 34996 ft 521 kts 99°
2026-04-14 20:52 25.30364 -96.40333 34996 ft 521 kts 99°
2026-04-14 20:53 25.29254 -96.32451 34996 ft 521 kts 99°
2026-04-14 20:53 25.28133 -96.24516 34996 ft 521 kts 99°
2026-04-14 20:54 25.27011 -96.16608 34996 ft 521 kts 99°
2026-04-14 20:54 25.25877 -96.08650 34996 ft 521 kts 99°
2026-04-14 20:55 25.24749 -96.00763 34996 ft 521 kts 99°
2026-04-14 20:55 25.23616 -95.92870 34996 ft 521 kts 99°
2026-04-14 20:56 25.22473 -95.84937 34996 ft 521 kts 99°
2026-04-14 20:56 25.21334 -95.77062 34996 ft 521 kts 99°
2026-04-14 20:57 25.20177 -95.69098 34996 ft 521 kts 99°
2026-04-14 20:57 25.19031 -95.61237 34996 ft 521 kts 99°
2026-04-14 20:58 25.17876 -95.53347 34996 ft 521 kts 99°
2026-04-14 20:58 25.16711 -95.45420 34996 ft 521 kts 99°
2026-04-14 20:59 25.15544 -95.37502 34996 ft 521 kts 99°
2026-04-14 20:59 25.14379 -95.29637 34996 ft 521 kts 99°
2026-04-14 21:00 25.13203 -95.21718 34996 ft 521 kts 99°
2026-04-14 21:00 25.12029 -95.13847 34996 ft 521 kts 99°
2026-04-14 21:01 25.10847 -95.05955 34996 ft 521 kts 100°
2026-04-14 21:01 25.09655 -94.98019 34996 ft 521 kts 100°
2026-04-14 21:02 25.08466 -94.90136 34996 ft 521 kts 100°
2026-04-14 21:02 25.07273 -94.82256 34996 ft 521 kts 100°
2026-04-14 21:03 25.06073 -94.74360 34996 ft 521 kts 100°
2026-04-14 21:03 25.04868 -94.66460 34996 ft 521 kts 100°
2026-04-14 21:04 25.03662 -94.58580 34996 ft 521 kts 100°
2026-04-14 21:04 25.02458 -94.50744 34996 ft 521 kts 100°
2026-04-14 21:05 25.01241 -94.42847 34996 ft 521 kts 100°
2026-04-14 21:05 25.00021 -94.34961 34996 ft 521 kts 100°
2026-04-14 21:06 24.98799 -94.27096 34996 ft 521 kts 100°
2026-04-14 21:06 24.97571 -94.19216 34996 ft 521 kts 100°
2026-04-14 21:07 24.96339 -94.11341 34996 ft 521 kts 100°
2026-04-14 21:07 24.95104 -94.03469 34996 ft 521 kts 100°
2026-04-14 21:08 24.93867 -93.95618 34996 ft 521 kts 100°
2026-04-14 21:08 24.92619 -93.87725 34996 ft 521 kts 100°
2026-04-14 21:09 24.91375 -93.79877 34996 ft 521 kts 100°
2026-04-14 21:09 24.90128 -93.72044 34996 ft 521 kts 100°
2026-04-14 21:10 24.88871 -93.64180 34996 ft 521 kts 100°
2026-04-14 21:10 24.87603 -93.56271 34996 ft 521 kts 100°
2026-04-14 21:11 24.86343 -93.48437 34996 ft 521 kts 101°
2026-04-14 21:11 24.85073 -93.40567 34996 ft 521 kts 101°
2026-04-14 21:12 24.84017 -93.34044 34996 ft 521 kts 101°
2026-04-14 21:12 24.82739 -93.26177 34996 ft 521 kts 101°
2026-04-14 21:13 24.81460 -93.18330 34996 ft 521 kts 101°
2026-04-14 21:13 24.80182 -93.10517 34996 ft 521 kts 101°
2026-04-14 21:14 24.78243 -92.98711 34996 ft 521 kts 101°
2026-04-14 21:14 24.76956 -92.90905 34996 ft 521 kts 101°
2026-04-14 21:15 24.75656 -92.83054 34996 ft 521 kts 101°
2026-04-14 21:15 24.74354 -92.75209 34996 ft 521 kts 101°
2026-04-14 21:16 24.73043 -92.67341 34996 ft 521 kts 101°
2026-04-14 21:16 24.71736 -92.59523 34996 ft 521 kts 101°
2026-04-14 21:17 24.70422 -92.51685 34996 ft 521 kts 101°
2026-04-14 21:17 24.69103 -92.43847 34996 ft 521 kts 101°
2026-04-14 21:18 24.67782 -92.36020 34996 ft 521 kts 101°
2026-04-14 21:18 24.66458 -92.28204 34996 ft 521 kts 101°
2026-04-14 21:19 24.65125 -92.20360 34996 ft 521 kts 101°
2026-04-14 21:19 24.63789 -92.12526 34996 ft 521 kts 101°
2026-04-14 21:20 24.62451 -92.04698 34996 ft 521 kts 101°
2026-04-14 21:20 24.61109 -91.96878 34996 ft 521 kts 101°
2026-04-14 21:21 24.59767 -91.89085 34996 ft 521 kts 101°
2026-04-14 21:21 24.58414 -91.81251 34996 ft 521 kts 101°
2026-04-14 21:22 24.57057 -91.73416 34996 ft 521 kts 101°
2026-04-14 21:22 24.55701 -91.65613 34996 ft 521 kts 101°
2026-04-14 21:23 24.54347 -91.57849 34996 ft 521 kts 101°
2026-04-14 21:23 24.52976 -91.50013 34996 ft 521 kts 101°
2026-04-14 21:24 24.51610 -91.42226 34996 ft 521 kts 101°
2026-04-14 21:24 24.50230 -91.34386 34996 ft 521 kts 101°
2026-04-14 21:25 24.48852 -91.26578 34996 ft 521 kts 101°
2026-04-14 21:25 24.47473 -91.18796 34996 ft 521 kts 101°
2026-04-14 21:26 24.46089 -91.11007 34996 ft 521 kts 101°
2026-04-14 21:26 24.44695 -91.03186 34996 ft 521 kts 102°
2026-04-14 21:27 24.43302 -90.95392 34996 ft 521 kts 102°
2026-04-14 21:27 24.41899 -90.87567 34996 ft 521 kts 102°
2026-04-14 21:28 24.40497 -90.79773 34996 ft 521 kts 102°
2026-04-14 21:28 24.39093 -90.71993 34996 ft 521 kts 102°
2026-04-14 21:29 24.37681 -90.64192 34996 ft 521 kts 102°
2026-04-14 21:29 24.36273 -90.56433 34996 ft 521 kts 102°
2026-04-14 21:30 24.34850 -90.48620 34996 ft 521 kts 102°
2026-04-14 21:30 24.33425 -90.40816 34996 ft 521 kts 102°
2026-04-14 21:31 24.32002 -90.33047 34996 ft 521 kts 102°
2026-04-14 21:31 24.30574 -90.25278 34996 ft 521 kts 102°
2026-04-14 21:32 24.29138 -90.17488 34996 ft 521 kts 102°
2026-04-14 21:32 24.27921 -90.10902 34996 ft 521 kts 102°
2026-04-14 21:33 24.27782 -90.10152 34996 ft 521 kts 102°
2026-04-14 21:33 24.26340 -90.02369 34996 ft 521 kts 102°
2026-04-14 21:34 24.24899 -89.94618 34996 ft 520 kts 102°
2026-04-14 21:34 24.23453 -89.86865 34996 ft 520 kts 102°
2026-04-14 21:35 24.22000 -89.79094 34996 ft 520 kts 102°
2026-04-14 21:35 24.20544 -89.71331 34996 ft 520 kts 102°
2026-04-14 21:36 24.19076 -89.63529 34996 ft 520 kts 102°
2026-04-14 21:36 24.17612 -89.55768 34996 ft 520 kts 102°
2026-04-14 21:37 24.16149 -89.48034 34996 ft 520 kts 102°
2026-04-14 21:37 24.14674 -89.40265 34996 ft 520 kts 102°
2026-04-14 21:38 24.13191 -89.32473 34996 ft 520 kts 102°
2026-04-14 21:38 24.11708 -89.24702 34996 ft 520 kts 102°
2026-04-14 21:39 24.10229 -89.16975 34996 ft 520 kts 102°
2026-04-14 21:39 24.08737 -89.09200 34996 ft 520 kts 102°
2026-04-14 21:40 24.07246 -89.01457 34996 ft 520 kts 102°
2026-04-14 21:40 24.05750 -88.93710 34996 ft 520 kts 102°
2026-04-14 21:41 24.04249 -88.85955 34996 ft 520 kts 102°
2026-04-14 21:41 24.02748 -88.78224 34996 ft 520 kts 102°
2026-04-14 21:42 24.01239 -88.70473 34996 ft 520 kts 102°
2026-04-14 21:42 23.99723 -88.62710 34996 ft 520 kts 103°
2026-04-14 21:43 23.98204 -88.54953 34996 ft 520 kts 103°
2026-04-14 21:43 23.96692 -88.47251 34996 ft 520 kts 103°
2026-04-14 21:44 23.95415 -88.40764 34996 ft 520 kts 103°
2026-04-14 21:44 23.93639 -88.31768 34996 ft 520 kts 103°
2026-04-14 21:45 23.92107 -88.24029 34996 ft 520 kts 103°
2026-04-14 21:45 23.90829 -88.17590 34996 ft 520 kts 103°
2026-04-14 21:46 23.89288 -88.09846 34996 ft 520 kts 103°
2026-04-14 21:46 23.87739 -88.02085 34996 ft 520 kts 103°
2026-04-14 21:47 23.86199 -87.94386 34996 ft 520 kts 103°
2026-04-14 21:47 23.84645 -87.86642 34996 ft 520 kts 103°
2026-04-14 21:48 23.83093 -87.78927 34996 ft 520 kts 103°
2026-04-14 21:48 23.81535 -87.71204 34996 ft 520 kts 103°
2026-04-14 21:49 23.79974 -87.63486 34996 ft 520 kts 103°
2026-04-14 21:49 23.78413 -87.55791 34996 ft 520 kts 103°
2026-04-14 21:50 23.76835 -87.48032 34996 ft 520 kts 103°
2026-04-14 21:50 23.75264 -87.40327 34996 ft 520 kts 103°
2026-04-14 21:51 23.73693 -87.32642 34996 ft 520 kts 103°
2026-04-14 21:51 23.72108 -87.24914 34996 ft 520 kts 103°
2026-04-14 21:52 23.70525 -87.17212 34996 ft 520 kts 103°
2026-04-14 21:52 23.68943 -87.09533 34996 ft 520 kts 103°
2026-04-14 21:53 23.67350 -87.01824 34996 ft 520 kts 103°
2026-04-14 21:53 23.65743 -86.94070 34996 ft 520 kts 103°
2026-04-14 21:54 23.64152 -86.86409 34996 ft 520 kts 103°
2026-04-14 21:54 23.62547 -86.78703 34996 ft 520 kts 103°
2026-04-14 21:55 23.60937 -86.70992 34996 ft 520 kts 103°
2026-04-14 21:55 23.59331 -86.63321 34996 ft 520 kts 103°
2026-04-14 21:56 23.57714 -86.55619 34996 ft 520 kts 103°
2026-04-14 21:56 23.56090 -86.47900 34996 ft 520 kts 103°
2026-04-14 21:57 23.54472 -86.40236 34996 ft 520 kts 103°
2026-04-14 21:57 23.52839 -86.32515 34996 ft 520 kts 103°
2026-04-14 21:58 23.51209 -86.24830 34996 ft 520 kts 103°
2026-04-14 21:58 23.49585 -86.17191 34996 ft 520 kts 103°
2026-04-14 21:59 23.47944 -86.09493 34996 ft 520 kts 104°
2026-04-14 21:59 23.46782 -86.04053 34995 ft 520 kts 104°
2026-04-14 22:00 23.45620 -85.98625 34771 ft 520 kts 104°
2026-04-14 22:00 23.45117 -85.96277 34662 ft 518 kts 104°
2026-04-14 22:00 23.44301 -85.92470 34483 ft 515 kts 104°
2026-04-14 22:01 23.43481 -85.88653 34303 ft 514 kts 104°
2026-04-14 22:01 23.42668 -85.84871 34125 ft 513 kts 104°
2026-04-14 22:01 23.41862 -85.81128 33949 ft 513 kts 104°
2026-04-14 22:01 23.41044 -85.77332 33770 ft 512 kts 104°
2026-04-14 22:02 23.40222 -85.73525 33591 ft 512 kts 104°
2026-04-14 22:02 23.39414 -85.69788 33415 ft 512 kts 104°
2026-04-14 22:02 23.38595 -85.66003 33237 ft 512 kts 104°
2026-04-14 22:02 23.37778 -85.62233 33060 ft 512 kts 104°
2026-04-14 22:03 23.36961 -85.58466 32883 ft 512 kts 104°
2026-04-14 22:03 23.36135 -85.54662 32705 ft 513 kts 104°
2026-04-14 22:03 23.35316 -85.50900 32528 ft 513 kts 104°
2026-04-14 22:03 23.34494 -85.47124 32351 ft 513 kts 104°
2026-04-14 22:04 23.33667 -85.43332 32173 ft 514 kts 104°
2026-04-14 22:04 23.32849 -85.39584 31998 ft 514 kts 104°
2026-04-14 22:04 23.32020 -85.35788 31820 ft 514 kts 104°
2026-04-14 22:04 23.31188 -85.31985 31642 ft 515 kts 104°
2026-04-14 22:05 23.30362 -85.28215 31466 ft 515 kts 104°
2026-04-14 22:05 23.29522 -85.24386 31287 ft 515 kts 104°
2026-04-14 22:05 23.28693 -85.20613 31111 ft 516 kts 104°
2026-04-14 22:05 23.27857 -85.16809 30933 ft 516 kts 104°
2026-04-14 22:06 23.27024 -85.13024 30756 ft 517 kts 104°
2026-04-14 22:06 23.26181 -85.09201 30578 ft 517 kts 104°
2026-04-14 22:06 23.25342 -85.05397 30401 ft 517 kts 104°
2026-04-14 22:06 23.24728 -85.02616 30271 ft 518 kts 104°
2026-04-14 22:07 23.24160 -85.00050 30152 ft 518 kts 104°
2026-04-14 22:07 23.23969 -84.99183 30112 ft 518 kts 104°
2026-04-14 22:07 23.23132 -84.95403 29936 ft 518 kts 104°
2026-04-14 22:07 23.22292 -84.91612 29759 ft 519 kts 104°
2026-04-14 22:08 23.21436 -84.87754 29580 ft 519 kts 104°
2026-04-14 22:08 23.20593 -84.83963 29404 ft 520 kts 104°
2026-04-14 22:08 23.19740 -84.80125 29226 ft 520 kts 104°
2026-04-14 22:08 23.18892 -84.76319 29049 ft 520 kts 104°
2026-04-14 22:09 23.18040 -84.72497 28872 ft 521 kts 104°
2026-04-14 22:09 23.17177 -84.68633 28693 ft 521 kts 104°
2026-04-14 22:09 23.16327 -84.64831 28517 ft 522 kts 104°
2026-04-14 22:09 23.15854 -84.62714 28419 ft 522 kts 104°
2026-04-14 22:10 23.15251 -84.60024 28295 ft 522 kts 104°
2026-04-14 22:10 23.14392 -84.56189 28118 ft 522 kts 104°
2026-04-14 22:10 23.13531 -84.52352 27940 ft 523 kts 104°
2026-04-14 22:10 23.12672 -84.48529 27764 ft 523 kts 104°
2026-04-14 22:11 23.11810 -84.44698 27587 ft 524 kts 104°
2026-04-14 22:11 23.10935 -84.40813 27408 ft 524 kts 104°
2026-04-14 22:11 23.10067 -84.36962 27230 ft 524 kts 104°
2026-04-14 22:11 23.09209 -84.33163 27055 ft 525 kts 104°
2026-04-14 22:12 23.08336 -84.29300 26877 ft 525 kts 104°
2026-04-14 22:12 23.07466 -84.25454 26700 ft 526 kts 104°
2026-04-14 22:12 23.06594 -84.21608 26524 ft 526 kts 104°
2026-04-14 22:12 23.05714 -84.17729 26345 ft 526 kts 104°
2026-04-14 22:13 23.04828 -84.13828 26166 ft 527 kts 104°
2026-04-14 22:13 23.03951 -84.09969 25989 ft 527 kts 104°
2026-04-14 22:13 23.03079 -84.06138 25813 ft 528 kts 104°
2026-04-14 22:13 23.02191 -84.02244 25635 ft 528 kts 104°
2026-04-14 22:14 23.01314 -83.98400 25459 ft 528 kts 104°
2026-04-14 22:14 23.00422 -83.94495 25280 ft 529 kts 104°
2026-04-14 22:14 22.99544 -83.90657 25098 ft 512 kts 104°
2026-04-14 22:14 22.98706 -83.86989 24905 ft 488 kts 104°
2026-04-14 22:15 22.97912 -83.83517 24713 ft 471 kts 104°
2026-04-14 22:15 22.97134 -83.80121 24524 ft 461 kts 104°
2026-04-14 22:15 22.96357 -83.76734 24340 ft 460 kts 105°
2026-04-14 22:15 22.95576 -83.73342 24160 ft 460 kts 105°
2026-04-14 22:16 22.94804 -83.69997 23984 ft 460 kts 105°
2026-04-14 22:16 22.94328 -83.67932 23874 ft 460 kts 105°
2026-04-14 22:16 22.93901 -83.66082 23777 ft 459 kts 105°
2026-04-14 22:16 22.93125 -83.62727 23599 ft 458 kts 105°
2026-04-14 22:17 22.92346 -83.59357 23419 ft 457 kts 105°
2026-04-14 22:17 22.91575 -83.56029 23241 ft 456 kts 105°
2026-04-14 22:17 22.91060 -83.53806 23123 ft 456 kts 105°
2026-04-14 22:17 22.90037 -83.49392 22759 ft 456 kts 105°
2026-04-14 22:18 22.89513 -83.47131 22515 ft 455 kts 105°
2026-04-14 22:18 22.88745 -83.43827 22144 ft 453 kts 105°
2026-04-14 22:18 22.88028 -83.40738 21793 ft 451 kts 105°
2026-04-14 22:18 22.87255 -83.37416 21414 ft 448 kts 105°
2026-04-14 22:19 22.86428 -83.34177 21038 ft 446 kts 108°
2026-04-14 22:19 22.84252 -83.27910 20288 ft 440 kts 114°
2026-04-14 22:19 22.83024 -83.24907 19916 ft 438 kts 116°
2026-04-14 22:20 22.81723 -83.21909 19538 ft 435 kts 117°
2026-04-14 22:20 22.80402 -83.18971 19162 ft 433 kts 117°
2026-04-14 22:20 22.79073 -83.16071 18788 ft 430 kts 118°
2026-04-14 22:20 22.77746 -83.13203 18414 ft 428 kts 118°
2026-04-14 22:21 22.76927 -83.11433 18183 ft 426 kts 118°
2026-04-14 22:21 22.76099 -83.09629 17946 ft 424 kts 117°
2026-04-14 22:21 22.75196 -83.06669 17512 ft 407 kts 101°
2026-04-14 22:21 22.75031 -83.03677 17018 ft 391 kts 88°
2026-04-14 22:22 22.75351 -83.00777 16511 ft 377 kts 79°
2026-04-14 22:22 22.75940 -82.98083 16013 ft 365 kts 73°
2026-04-14 22:22 22.76688 -82.95469 15504 ft 355 kts 70°
2026-04-14 22:22 22.77138 -82.94048 15219 ft 349 kts 69°
2026-04-14 22:23 22.77956 -82.91577 14709 ft 341 kts 69°
2026-04-14 22:23 22.78754 -82.89195 14207 ft 334 kts 69°
2026-04-14 22:23 22.79521 -82.86844 13702 ft 328 kts 70°
2026-04-14 22:23 22.80228 -82.84535 13203 ft 323 kts 71°
2026-04-14 22:24 22.80897 -82.82235 12700 ft 318 kts 71°
2026-04-14 22:24 22.81541 -82.79956 12198 ft 314 kts 72°
2026-04-14 22:24 22.82171 -82.77694 11676 ft 311 kts 72°
2026-04-14 22:24 22.82791 -82.75454 11056 ft 312 kts 72°
2026-04-14 22:25 22.83413 -82.73207 10434 ft 312 kts 72°
2026-04-14 22:25 22.84036 -82.70951 9811 ft 312 kts 72°
2026-04-14 22:25 22.84537 -82.69135 9236 ft 303 kts 72°
2026-04-14 22:25 22.84971 -82.67565 8683 ft 293 kts 72°
2026-04-14 22:26 22.85538 -82.65510 7895 ft 275 kts 72°
2026-04-14 22:26 22.85836 -82.64430 7474 ft 263 kts 72°
2026-04-14 22:26 22.85905 -82.64180 7373 ft 261 kts 72°
2026-04-14 22:26 22.86141 -82.63324 7022 ft 254 kts 72°
2026-04-14 22:28 22.86535 -82.61897 6418 ft 244 kts 71°
2026-04-14 22:28 22.86893 -82.60605 5856 ft 235 kts 70°
2026-04-14 22:28 22.87462 -82.59018 5071 ft 219 kts 62°
2026-04-14 22:28 22.87670 -82.58557 4858 ft 213 kts 60°
2026-04-14 22:29 22.87852 -82.58186 4834 ft 219 kts 58°
2026-04-14 22:29 22.88744 -82.56553 4905 ft 264 kts 56°
2026-04-14 22:29 22.89719 -82.54924 4514 ft 244 kts 54°
2026-04-14 22:29 22.90647 -82.53454 3538 ft 239 kts 54°
2026-04-14 22:30 22.91615 -82.51979 2490 ft 230 kts 54°
2026-04-14 22:30 22.92508 -82.50636 2010 ft 209 kts 54°
2026-04-14 22:30 22.93307 -82.49379 1602 ft 194 kts 55°
2026-04-14 22:30 22.94024 -82.48250 1355 ft 172 kts 56°
2026-04-14 22:31 22.94481 -82.47540 1137 ft 168 kts 56°
2026-04-14 22:31 22.95154 -82.46497 979 ft 170 kts 54°
2026-04-14 22:31 22.95860 -82.45448 829 ft 170 kts 53°
2026-04-14 22:31 22.96441 -82.44603 686 ft 170 kts 54°
2026-04-14 22:32 22.97030 -82.43720 515 ft 170 kts 54°
2026-04-14 22:32 22.97656 -82.42781 328 ft 165 kts 54°
2026-04-14 22:32 22.98075 -82.42158 228 ft 138 kts 53°
2026-04-14 22:32 22.98476 -82.41562 228 ft 65 kts 54°
2026-04-14 22:33 22.96658 -82.44276 624 ft 170 kts 54°
2026-04-14 22:33 22.97354 -82.43235 432 ft 171 kts 54°
2026-04-14 22:33 22.97816 -82.42542 256 ft 159 kts 54°
2026-04-14 22:33 22.98341 -82.41762 228 ft 90 kts 54°
2026-04-14 22:34 22.98592 -82.41389 228 ft 35 kts 54°
2026-04-14 22:34 22.98652 -82.41299 228 ft 11 kts 54°
2026-04-14 22:34 22.98722 -82.41194 228 ft 19 kts 54°
2026-04-14 22:34 22.98795 -82.41090 228 ft 19 kts 45°
2026-04-14 22:35 22.98895 -82.41060 228 ft 14 kts 10°
2026-04-14 22:35 22.98990 -82.41040 228 ft 14 kts 11°
2026-04-14 22:35 22.99065 -82.40993 228 ft 12 kts 50°
2026-04-14 22:35 22.99116 -82.40925 228 ft 12 kts 52°
2026-04-14 22:36 22.99145 -82.40882 228 ft 13 kts 53°
2026-04-14 22:36 22.99166 -82.40851 228 ft 14 kts 53°
2026-04-14 22:36 22.99224 -82.40764 228 ft 13 kts 55°
2026-04-14 22:37 22.99262 -82.40749 228 ft 5 kts 338°
2026-04-14 22:37 22.99294 -82.40773 228 ft 6 kts 325°
2026-04-14 22:37 22.99339 -82.40805 228 ft 9 kts 329°
2026-04-14 22:37 22.99395 -82.40804 228 ft 7 kts 38°
2026-04-14 22:38 22.99435 -82.40757 228 ft 10 kts 48°
2026-04-14 22:38 22.99483 -82.40691 228 ft 12 kts 49°
2026-04-14 22:38 22.99539 -82.40680 228 ft 8 kts 325°
2026-04-14 22:38 22.99591 -82.40699 228 ft 6 kts
2026-04-14 22:39 22.99622 -82.40682 228 ft 3 kts 28°
2026-04-14 22:39 22.99623 -82.40681 228 ft 0 kts 28°